Disclaimer

Please do not use the information listed here in-flight or in-navigation, as they are not provided to us by the airports but are provided by volunteers, so they might be outdated.

Search


Regions


Airport information page

Radio informations:
Aerodrome flight information system (AFIS) - 118.8 MHz

Airport informations:
Latitude: 61° 56' 35.03" N
Longitude: 028° 56' 42.49" E
Elevation: 311 feet - 95 meters
Operating hours: N/A
Operating agency: Civil government, landing fees and diplomatic clearance may be required
Timezone: UTC+2(+3DT) - Last Sunday in March to last Sunday in October
Fuel: Jet A1, without icing nhibitor.

100/130 MIL Spec, low lead, aviation gasoline (BLUE)

Runway information:
12/30 - 7546 x 148 feet< - >2300 x 45 meters

Recent METARs:
EFSA 221920Z AUTO 23001KT 6000 -SN OVC004 M12/M13 Q1010
EFSA 221950Z AUTO 23002KT 6000 -SN OVC004 M11/M13 Q1010
EFSA 222020Z AUTO 20002KT 9999 -SN OVC004 M11/M12 Q1010

Airport on the map: